| time (UTC) | temp C | wind direction | speed KPH | gust KPH | rain 1hr cm | rain 24hr cm | rain mn cm | humidity % | barometer mb |
| 20260502180505 | 18 | 279 | 9.7 | 19.3 | 0.00 | 5.00 | 2.44 | 81 | 1018.4 |
| 20260502180221 | 18 | 279 | 4.8 | 19.3 | 0.00 | 5.00 | 2.44 | 81 | 1018.6 |
| 20260502170505 | 18 | 288 | 1.6 | 14.5 | 0.00 | 5.00 | 2.44 | 81 | 1018.2 |
| 20260502164222 | 18 | 298 | 4.8 | 9.7 | 0.00 | 5.00 | 2.44 | 80 | 1018.3 |
| 20260502164004 | 18 | 293 | 3.2 | 9.7 | 0.00 | 5.00 | 2.44 | 80 | 1018.1 |
| 20260502163723 | 18 | 302 | 4.8 | 9.7 | 0.00 | 5.00 | 2.44 | 79 | 1018.3 |
| 20260502163504 | 18 | 301 | 1.6 | 9.7 | 0.00 | 5.00 | 2.44 | 79 | 1018.3 |
| 20260502163221 | 19 | 316 | 4.8 | 11.3 | 0.00 | 5.00 | 2.44 | 78 | 1018.2 |
| 20260502163005 | 19 | 326 | 3.2 | 11.3 | 0.00 | 5.00 | 2.44 | 77 | 1018.1 |
| 20260502162505 | 20 | 318 | 6.4 | 11.3 | 0.00 | 5.00 | 2.44 | 79 | 1018.1 |
| 20260502162005 | 19 | 311 | 4.8 | 9.7 | 0.00 | 5.00 | 2.44 | 82 | 1017.9 |
| 20260502161722 | 18 | 323 | 0.0 | 9.7 | 0.00 | 5.00 | 2.44 | 81 | 1017.9 |
| 20260502161504 | 18 | 318 | 4.8 | 9.7 | 0.00 | 5.00 | 2.44 | 80 | 1018.0 |
| 20260502161005 | 18 | 295 | 4.8 | 14.5 | 0.00 | 5.00 | 2.44 | 80 | 1018.1 |
| 20260502160721 | 18 | 272 | 4.8 | 14.5 | 0.00 | 5.00 | 2.44 | 79 | 1018.0 |
| 20260502160505 | 18 | 286 | 6.4 | 14.5 | 0.00 | 5.00 | 2.44 | 78 | 1018.0 |
| 20260502160222 | 18 | 284 | 4.8 | 14.5 | 0.00 | 5.00 | 2.44 | 76 | 1017.9 |
| 20260502152221 | 18 | 273 | 0.0 | 8.0 | 0.00 | 5.00 | 2.44 | 86 | 1017.3 |
| 20260502152005 | 18 | 270 | 4.8 | 8.0 | 0.00 | 5.00 | 2.44 | 87 | 1017.4 |
| 20260502151723 | 18 | 268 | 3.2 | 9.7 | 0.00 | 5.00 | 2.44 | 90 | 1017.3 |
| 20260502151504 | 18 | 276 | 4.8 | 9.7 | 0.00 | 5.00 | 2.44 | 91 | 1017.3 |
| 20260502151222 | 18 | 282 | 3.2 | 9.7 | 0.00 | 5.00 | 2.44 | 94 | 1017.2 |
| 20260502151006 | 18 | 286 | 6.4 | 9.7 | 0.00 | 5.00 | 2.44 | 95 | 1017.5 |
| 20260502150721 | 18 | 287 | 4.8 | 9.7 | 0.00 | 5.00 | 2.44 | 98 | 1017.2 |
| 20260502150505 | 18 | 282 | 4.8 | 9.7 | 0.00 | 5.00 | 2.44 | 99 | 1017.4 |
| 20260502150221 | 18 | 273 | 4.8 | 9.7 | 0.00 | 5.00 | 2.44 | 99 | 1017.4 |
| 20260502130505 | 17 | 315 | 4.8 | 11.3 | 0.13 | 4.98 | 2.41 | 99 | 1017.5 |
| 20260502123722 | 17 | 256 | 3.2 | 8.0 | 0.08 | 4.90 | 2.36 | 99 | 1016.8 |
| 20260502123504 | 17 | 263 | 4.8 | 8.0 | 0.05 | 4.88 | 2.34 | 99 | 1016.7 |
| 20260502123120 | 17 | 255 | 4.8 | 8.0 | 0.05 | 4.88 | 2.34 | 99 | 1016.8 |
| 20260502123005 | 17 | 259 | 4.8 | 8.0 | 0.05 | 4.88 | 2.34 | 99 | 1016.8 |
| 20260502122621 | 17 | 256 | 4.8 | 9.7 | 0.03 | 4.85 | 2.29 | 99 | 1016.5 |
| 20260502122504 | 17 | 249 | 4.8 | 9.7 | 0.03 | 4.85 | 2.29 | 99 | 1016.7 |
| 20260502122119 | 16 | 248 | 4.8 | 9.7 | 0.00 | 4.83 | 2.26 | 99 | 1016.6 |
| 20260502122004 | 16 | 246 | 1.6 | 9.7 | 0.00 | 4.83 | 2.26 | 99 | 1016.5 |
| 20260502121619 | 16 | 267 | 4.8 | 8.0 | 0.00 | 4.83 | 2.26 | 99 | 1016.4 |
| 20260502121504 | 16 | 268 | 3.2 | 8.0 | 0.00 | 4.83 | 2.26 | 99 | 1016.3 |
| 20260502121251 | 16 | 265 | 3.2 | 8.0 | 0.00 | 4.83 | 2.26 | 99 | 1016.2 |
| 20260502120750 | 16 | 253 | 4.8 | 8.0 | 0.00 | 4.83 | 2.26 | 99 | 1016.1 |
| 20260502120250 | 16 | 257 | 6.4 | 8.0 | 0.00 | 4.83 | 2.26 | 99 | 1016.2 |
| 20260502115750 | 16 | 251 | 3.2 | 9.7 | 0.00 | 4.83 | 2.26 | 99 | 1016.0 |
| 20260502115251 | 16 | 245 | 3.2 | 9.7 | 0.00 | 4.83 | 2.26 | 99 | 1015.9 |
| 20260502114751 | 16 | 265 | 4.8 | 9.7 | 0.00 | 4.83 | 2.26 | 99 | 1015.7 |
| 20260502114250 | 16 | 294 | 1.6 | 8.0 | 0.00 | 4.83 | 2.26 | 99 | 1015.7 |
| 20260502113750 | 16 | 299 | 1.6 | 4.8 | 0.00 | 4.83 | 2.26 | 99 | 1015.7 |
| 20260502113252 | 16 | 288 | 1.6 | 4.8 | 0.00 | 4.83 | 2.26 | 99 | 1015.4 |
| 20260502112751 | 16 | 286 | 0.0 | 4.8 | 0.00 | 4.83 | 2.26 | 99 | 1015.5 |
| 20260502112251 | 16 | 268 | 3.2 | 4.8 | 0.00 | 4.83 | 2.26 | 99 | 1015.5 |
| 20260502111750 | 16 | 253 | 3.2 | 4.8 | 0.00 | 4.83 | 2.26 | 99 | 1015.4 |
| 20260502111250 | 16 | 255 | 0.0 | 3.2 | 0.00 | 4.83 | 2.26 | 99 | 1015.1 |
| 20260502110751 | 16 | 262 | 0.0 | 3.2 | 0.00 | 4.83 | 2.26 | 99 | 1015.2 |
| 20260502110251 | 16 | 250 | 0.0 | 1.6 | 0.00 | 4.83 | 2.26 | 99 | 1014.9 |
| 20260502105751 | 16 | 230 | 0.0 | 3.2 | 0.00 | 4.83 | 2.26 | 99 | 1014.9 |
| 20260502105250 | 16 | 209 | 0.0 | 4.8 | 0.00 | 4.83 | 2.26 | 99 | 1014.7 |
| 20260502104752 | 16 | 216 | 0.0 | 4.8 | 0.00 | 4.83 | 2.26 | 99 | 1014.6 |
| 20260502104251 | 16 | 224 | 1.6 | 4.8 | 0.00 | 4.83 | 2.26 | 99 | 1014.3 |
| 20260502103751 | 16 | 225 | 0.0 | 1.6 | 0.00 | 4.83 | 2.26 | 99 | 1014.0 |
| 20260502103250 | 16 | 246 | 0.0 | 3.2 | 0.00 | 4.83 | 2.26 | 99 | 1014.0 |
| 20260502102752 | 16 | 272 | 0.0 | 3.2 | 0.00 | 4.83 | 2.26 | 99 | 1014.0 |
| 20260502102251 | 16 | 272 | 0.0 | 3.2 | 0.00 | 4.83 | 2.26 | 99 | 1014.0 |
| 20260502101751 | 16 | 243 | 0.0 | 3.2 | 0.00 | 4.83 | 2.26 | 99 | 1014.0 |
| 20260502101250 | 16 | 251 | 0.0 | 1.6 | 0.00 | 4.83 | 2.26 | 99 | 1013.7 |
| 20260502100750 | 16 | 247 | 0.0 | 1.6 | 0.00 | 4.83 | 2.26 | 99 | 1013.7 |
| 20260502100252 | 16 | 217 | 0.0 | 1.6 | 0.00 | 4.83 | 2.26 | 99 | 1013.7 |
| 20260502091251 | 16 | 238 | 0.0 | 3.2 | 0.00 | 4.83 | 2.26 | 99 | 1013.0 |
| 20260502090751 | 16 | 202 | 0.0 | 3.2 | 0.00 | 4.83 | 2.26 | 99 | 1013.1 |
| 20260502090250 | 16 | 201 | 0.0 | 4.8 | 0.00 | 4.83 | 2.26 | 99 | 1012.9 |
| 20260502071250 | 16 | 248 | 0.0 | 14.5 | 0.18 | 4.83 | 2.26 | 99 | 1012.4 |
| 20260502070752 | 16 | 248 | 4.8 | 17.7 | 0.23 | 4.83 | 2.26 | 99 | 1012.6 |
| 20260502070251 | 16 | 276 | 6.4 | 19.3 | 0.25 | 4.83 | 2.26 | 99 | 1012.7 |
| 20260502065751 | 16 | 334 | 4.8 | 19.3 | 0.28 | 4.83 | 2.26 | 99 | 1012.5 |
| 20260502065250 | 16 | 11 | 9.7 | 12.9 | 0.36 | 4.78 | 2.24 | 99 | 1011.9 |
| 20260502064750 | 16 | 6 | 3.2 | 17.7 | 0.36 | 4.75 | 2.21 | 99 | 1012.9 |
| 20260502064251 | 16 | 329 | 1.6 | 17.7 | 0.41 | 4.75 | 2.21 | 99 | 1012.8 |
| 20260502063751 | 16 | 324 | 4.8 | 17.7 | 0.43 | 4.72 | 2.18 | 99 | 1013.1 |
| 20260502063251 | 16 | 18 | 1.6 | 17.7 | 0.53 | 4.72 | 2.18 | 99 | 1013.0 |
| 20260502062751 | 15 | 326 | 4.8 | 17.7 | 0.56 | 4.72 | 2.18 | 99 | 1013.0 |
| 20260502062251 | 15 | 324 | 6.4 | 17.7 | 0.56 | 4.70 | 2.16 | 99 | 1013.4 |
| 20260502061751 | 15 | 8 | 4.8 | 11.3 | 0.58 | 4.67 | 2.11 | 99 | 1014.1 |
| 20260502061252 | 15 | 333 | 4.8 | 16.1 | 0.58 | 4.65 | 2.08 | 99 | 1014.8 |
| 20260502060752 | 15 | 316 | 8.0 | 16.1 | 0.58 | 4.57 | 2.03 | 99 | 1014.8 |
| 20260502060251 | 15 | 307 | 12.9 | 16.1 | 0.58 | 4.55 | 2.01 | 99 | 1015.1 |
| 20260502055751 | 15 | 339 | 9.7 | 14.5 | 0.58 | 4.50 | 1.93 | 99 | 1015.2 |
| 20260502055250 | 15 | 29 | 3.2 | 12.9 | 0.56 | 4.42 | 1.88 | 99 | 1015.1 |
| 20260502054750 | 15 | 329 | 8.0 | 12.9 | 0.56 | 4.39 | 1.85 | 99 | 1015.1 |
| 20260502054251 | 15 | 262 | 3.2 | 4.8 | 0.53 | 4.34 | 1.78 | 99 | 1015.2 |
| 20260502053751 | 15 | 242 | 1.6 | 4.8 | 0.51 | 4.24 | 1.70 | 99 | 1015.6 |
| 20260502053250 | 15 | 239 | 0.0 | 6.4 | 0.51 | 4.19 | 1.63 | 99 | 1015.7 |
| 20260502052752 | 15 | 212 | 1.6 | 6.4 | 0.53 | 4.17 | 1.60 | 99 | 1015.5 |
| 20260502052251 | 15 | 201 | 0.0 | 6.4 | 0.51 | 4.09 | 1.55 | 99 | 1015.6 |
| 20260502051751 | 15 | 249 | 3.2 | 4.8 | 0.51 | 4.06 | 1.52 | 99 | 1015.4 |
| 20260502051250 | 15 | 250 | 0.0 | 4.8 | 0.46 | 4.01 | 1.45 | 99 | 1015.4 |
| 20260502050750 | 15 | 266 | 0.0 | 4.8 | 0.46 | 3.99 | 1.42 | 99 | 1015.6 |
| 20260502050252 | 15 | 256 | 0.0 | 6.4 | 0.51 | 3.94 | 1.40 | 99 | 1015.2 |
| 20260502045751 | 15 | 200 | 1.6 | 6.4 | 0.58 | 3.89 | 1.35 | 99 | 1015.0 |
| 20260502045251 | 15 | 162 | 4.8 | 6.4 | 0.61 | 3.86 | 1.30 | 99 | 1015.0 |
| 20260502044750 | 15 | 108 | 0.0 | 6.4 | 0.64 | 3.84 | 1.27 | 99 | 1014.9 |
| 20260502044252 | 15 | 84 | 1.6 | 12.9 | 0.71 | 3.78 | 1.24 | 99 | 1014.6 |
| 20260502043751 | 15 | 124 | 3.2 | 12.9 | 0.69 | 3.73 | 1.19 | 99 | 1014.3 |
| 20260502043251 | 15 | 88 | 8.0 | 14.5 | 0.71 | 3.68 | 1.12 | 99 | 1014.6 |
| 20260502042750 | 15 | 61 | 8.0 | 14.5 | 0.71 | 3.61 | 1.07 | 99 | 1014.9 |
| 20260502042252 | 15 | 91 | 9.7 | 14.5 | 0.76 | 3.58 | 1.04 | 99 | 1014.9 |
| 20260502041751 | 15 | 116 | 4.8 | 6.4 | 0.79 | 3.56 | 1.02 | 99 | 1015.3 |
| 20260502041251 | 15 | 47 | 0.0 | 8.0 | 0.79 | 3.53 | 0.97 | 99 | 1015.5 |
| 20260502040750 | 15 | 78 | 1.6 | 8.0 | 0.84 | 3.51 | 0.94 | 99 | 1015.6 |
| 20260502040250 | 15 | 153 | 3.2 | 9.7 | 0.86 | 3.43 | 0.89 | 99 | 1015.5 |
| 20260502035751 | 15 | 151 | 1.6 | 9.7 | 0.76 | 3.28 | 0.74 | 99 | 1016.3 |
| 20260502035251 | 15 | 134 | 8.0 | 9.7 | 0.74 | 3.23 | 0.69 | 99 | 1016.2 |
| 20260502034751 | 15 | 78 | 4.8 | 9.7 | 0.71 | 3.15 | 0.58 | 99 | 1015.6 |
| 20260502034250 | 15 | 91 | 4.8 | 12.9 | 0.69 | 3.07 | 0.53 | 99 | 1015.3 |
| 20260502033752 | 15 | 117 | 6.4 | 12.9 | 0.64 | 3.02 | 0.46 | 99 | 1015.3 |
| 20260502033251 | 15 | 119 | 6.4 | 11.3 | 0.61 | 2.95 | 0.41 | 99 | 1015.2 |
| 20260502032751 | 15 | 124 | 4.8 | 11.3 | 0.58 | 2.90 | 0.36 | 99 | 1015.5 |
| 20260502032250 | 15 | 113 | 1.6 | 4.8 | 0.53 | 2.82 | 0.25 | 99 | 1015.9 |
| 20260502031751 | 15 | 117 | 3.2 | 4.8 | 0.51 | 2.74 | 0.20 | 99 | 1016.0 |
| 20260502031251 | 15 | 103 | 3.2 | 4.8 | 0.51 | 2.72 | 0.18 | 99 | 1016.3 |
| 20260502030751 | 15 | 75 | 0.0 | 4.8 | 0.56 | 2.67 | 0.10 | 99 | 1016.3 |
| 20260502030250 | 15 | 111 | 1.6 | 4.8 | 0.61 | 2.57 | 0.03 | 99 | 1016.3 |
| 20260502025752 | 15 | 79 | 0.0 | 9.7 | 0.64 | 2.51 | 2.51 | 99 | 1016.1 |
| 20260502025251 | 15 | 104 | 0.0 | 9.7 | 0.71 | 2.49 | 2.49 | 99 | 1016.0 |
| 20260502024751 | 15 | 108 | 1.6 | 9.7 | 0.86 | 2.41 | 2.41 | 99 | 1015.7 |
| 20260502024250 | 15 | 91 | 4.8 | 8.0 | 1.45 | 2.39 | 2.39 | 99 | 1015.4 |
| 20260502023752 | 15 | 108 | 1.6 | 9.7 | 1.83 | 2.36 | 2.36 | 99 | 1016.1 |
| 20260502023252 | 15 | 120 | 1.6 | 9.7 | 2.06 | 2.34 | 2.34 | 99 | 1016.1 |
| 20260502022750 | 15 | 115 | 8.0 | 9.7 | 2.06 | 2.29 | 2.29 | 99 | 1015.6 |
| 20260502022252 | 15 | 123 | 4.8 | 12.9 | 2.03 | 2.26 | 2.26 | 99 | 1015.7 |
| 20260502021751 | 15 | 131 | 4.8 | 12.9 | 2.06 | 2.24 | 2.24 | 99 | 1015.3 |
| 20260502021250 | 15 | 110 | 6.4 | 11.3 | 2.03 | 2.21 | 2.21 | 99 | 1016.3 |
| 20260502020750 | 15 | 68 | 4.8 | 9.7 | 1.91 | 2.08 | 2.08 | 99 | 1016.6 |
| 20260502020252 | 15 | 351 | 1.6 | 8.0 | 1.75 | 1.93 | 1.93 | 99 | 1017.4 |
| 20260502015751 | 15 | 62 | 1.6 | 8.0 | 1.63 | 1.83 | 1.83 | 99 | 1017.4 |
| 20260502015251 | 15 | 104 | 4.8 | 8.0 | 1.55 | 1.73 | 1.73 | 99 | 1016.1 |
| 20260502014751 | 15 | 161 | 1.6 | 17.7 | 1.30 | 1.50 | 1.50 | 99 | 1016.9 |
| 20260502014252 | 16 | 248 | 4.8 | 17.7 | 0.76 | 0.91 | 0.91 | 98 | 1017.7 |
| 20260502013751 | 16 | 255 | 9.7 | 19.3 | 0.28 | 0.43 | 0.43 | 97 | 1017.6 |
| 20260502013251 | 16 | 120 | 9.7 | 49.9 | 0.10 | 0.25 | 0.25 | 97 | 1016.9 |
| 20260502012750 | 16 | 109 | 11.3 | 49.9 | 0.08 | 0.23 | 0.23 | 97 | 1014.0 |
| 20260502012250 | 16 | 108 | 32.2 | 49.9 | 0.08 | 0.23 | 0.23 | 97 | 1014.0 |
| 20260502011752 | 16 | 117 | 9.7 | 16.1 | 0.03 | 0.18 | 0.18 | 98 | 1014.4 |
| 20260502011251 | 16 | 77 | 8.0 | 17.7 | 0.03 | 0.18 | 0.18 | 99 | 1014.9 |
| 20260502010751 | 16 | 95 | 6.4 | 20.9 | 0.03 | 0.18 | 0.18 | 99 | 1014.9 |
| 20260502010250 | 16 | 129 | 9.7 | 20.9 | 0.03 | 0.18 | 0.18 | 99 | 1015.2 |
| 20260502005752 | 16 | 101 | 3.2 | 19.3 | 0.03 | 0.18 | 0.18 | 99 | 1015.6 |
| 20260502005251 | 16 | 102 | 6.4 | 19.3 | 0.03 | 0.18 | 0.18 | 99 | 1015.5 |
| 20260502004751 | 16 | 122 | 8.0 | 16.1 | 0.03 | 0.18 | 0.18 | 99 | 1015.3 |
| 20260502004250 | 16 | 113 | 9.7 | 16.1 | 0.00 | 0.13 | 0.13 | 99 | 1015.6 |
| 20260502003752 | 16 | 22 | 4.8 | 20.9 | 0.00 | 0.13 | 0.13 | 99 | 1016.3 |
| 20260502003252 | 16 | 347 | 4.8 | 20.9 | 0.03 | 0.13 | 0.13 | 99 | 1015.9 |
| 20260502002751 | 16 | 6 | 14.5 | 20.9 | 0.03 | 0.13 | 0.13 | 99 | 1015.7 |
| 20260502002251 | 16 | 76 | 4.8 | 12.9 | 0.03 | 0.13 | 0.13 | 99 | 1015.2 |
| 20260502001750 | 16 | 89 | 4.8 | 14.5 | 0.03 | 0.13 | 0.13 | 99 | 1015.3 |
| 20260502001251 | 16 | 83 | 4.8 | 14.5 | 0.03 | 0.13 | 0.13 | 99 | 1015.4 |
| 20260502000751 | 16 | 91 | 4.8 | 9.7 | 0.03 | 0.13 | 0.13 | 99 | 1015.8 |
| 20260502000251 | 16 | 89 | 4.8 | 9.7 | 0.03 | 0.13 | 0.13 | 99 | 1015.7 |
| 20260501235750 | 16 | 101 | 4.8 | 16.1 | 0.03 | 0.13 | 0.13 | 99 | 1015.8 |
| 20260501235252 | 16 | 101 | 4.8 | 16.1 | 0.03 | 0.13 | 0.13 | 99 | 1015.6 |
| 20260501234751 | 16 | 98 | 3.2 | 14.5 | 0.03 | 0.13 | 0.13 | 99 | 1015.5 |
| 20260501234251 | 16 | 113 | 8.0 | 17.7 | 0.03 | 0.13 | 0.13 | 99 | 1015.2 |
| 20260501233752 | 16 | 116 | 8.0 | 17.7 | 0.03 | 0.13 | 0.13 | 99 | 1015.2 |
| 20260501233252 | 16 | 117 | 11.3 | 17.7 | 0.00 | 0.10 | 0.10 | 99 | 1015.4 |
| 20260501232751 | 16 | 117 | 8.0 | 16.1 | 0.00 | 0.10 | 0.10 | 99 | 1015.3 |
| 20260501232251 | 16 | 109 | 6.4 | 16.1 | 0.00 | 0.10 | 0.10 | 99 | 1015.5 |
| 20260501231751 | 16 | 109 | 8.0 | 16.1 | 0.00 | 0.10 | 0.10 | 99 | 1015.5 |
| 20260501231252 | 16 | 103 | 6.4 | 9.7 | 0.00 | 0.10 | 0.10 | 99 | 1015.5 |
| 20260501230751 | 16 | 89 | 8.0 | 9.7 | 0.03 | 0.10 | 0.10 | 99 | 1015.6 |
| 20260501230251 | 16 | 92 | 3.2 | 9.7 | 0.03 | 0.10 | 0.10 | 99 | 1015.7 |
| 20260501225750 | 16 | 64 | 4.8 | 9.7 | 0.03 | 0.10 | 0.10 | 99 | 1016.0 |
| 20260501225252 | 16 | 26 | 3.2 | 9.7 | 0.03 | 0.10 | 0.10 | 99 | 1016.2 |
| 20260501224752 | 16 | 348 | 3.2 | 9.7 | 0.03 | 0.10 | 0.10 | 99 | 1016.2 |
| 20260501224251 | 16 | 346 | 4.8 | 14.5 | 0.03 | 0.10 | 0.10 | 99 | 1016.9 |
| 20260501223751 | 16 | 10 | 3.2 | 14.5 | 0.03 | 0.10 | 0.10 | 99 | 1016.4 |
| 20260501223250 | 16 | 49 | 9.7 | 14.5 | 0.05 | 0.10 | 0.10 | 99 | 1015.5 |
| 20260501222752 | 16 | 76 | 6.4 | 20.9 | 0.05 | 0.10 | 0.10 | 99 | 1015.6 |
| 20260501222251 | 16 | 59 | 11.3 | 20.9 | 0.05 | 0.10 | 0.10 | 99 | 1015.5 |
| 20260501221751 | 16 | 74 | 8.0 | 19.3 | 0.05 | 0.10 | 0.10 | 99 | 1015.5 |
| 20260501221250 | 16 | 101 | 8.0 | 12.9 | 0.05 | 0.10 | 0.10 | 99 | 1015.6 |
| 20260501220752 | 16 | 80 | 4.8 | 12.9 | 0.03 | 0.08 | 0.08 | 99 | 1015.6 |
| 20260501220252 | 16 | 84 | 4.8 | 9.7 | 0.03 | 0.08 | 0.08 | 99 | 1015.8 |
| 20260501215751 | 16 | 90 | 4.8 | 6.4 | 0.03 | 0.08 | 0.08 | 99 | 1015.9 |
| 20260501215251 | 16 | 67 | 3.2 | 4.8 | 0.03 | 0.08 | 0.08 | 99 | 1016.3 |
| 20260501214750 | 16 | 40 | 0.0 | 9.7 | 0.03 | 0.08 | 0.08 | 99 | 1016.3 |
| 20260501214251 | 16 | 321 | 4.8 | 22.5 | 0.03 | 0.08 | 0.08 | 99 | 1016.4 |
| 20260501213751 | 16 | 332 | 4.8 | 22.5 | 0.03 | 0.08 | 0.08 | 99 | 1016.9 |
| 20260501213251 | 16 | 93 | 4.8 | 22.5 | 0.00 | 0.05 | 0.05 | 99 | 1016.3 |
| 20260501212750 | 16 | 96 | 4.8 | 22.5 | 0.03 | 0.05 | 0.05 | 99 | 1014.7 |
| 20260501212252 | 16 | 73 | 11.3 | 17.7 | 0.05 | 0.05 | 0.05 | 99 | 1014.7 |
| 20260501211750 | 16 | 76 | 9.7 | 17.7 | 0.05 | 0.05 | 0.05 | 98 | 1014.7 |
| 20260501211252 | 16 | 85 | 8.0 | 16.1 | 0.05 | 0.05 | 0.05 | 97 | 1014.8 |
| 20260501210751 | 16 | 63 | 8.0 | 17.7 | 0.05 | 0.05 | 0.05 | 97 | 1014.7 |
| 20260501210251 | 17 | 45 | 4.8 | 19.3 | 0.05 | 0.05 | 0.05 | 96 | 1014.6 |
| 20260501205750 | 17 | 54 | 8.0 | 19.3 | 0.05 | 0.05 | 0.05 | 95 | 1015.0 |
| 20260501205252 | 17 | 95 | 8.0 | 12.9 | 0.05 | 0.05 | 0.05 | 94 | 1015.1 |
| 20260501204752 | 17 | 106 | 8.0 | 12.9 | 0.05 | 0.05 | 0.05 | 91 | 1015.0 |
| 20260501204251 | 17 | 75 | 4.8 | 9.7 | 0.05 | 0.05 | 0.05 | 89 | 1015.2 |
| 20260501203751 | 18 | 59 | 4.8 | 9.7 | 0.05 | 0.05 | 0.05 | 87 | 1015.1 |
| 20260501203250 | 18 | 41 | 4.8 | 9.7 | 0.05 | 0.05 | 0.05 | 86 | 1015.3 |
| 20260501202752 | 18 | 339 | 1.6 | 8.0 | 0.03 | 0.03 | 0.03 | 83 | 1015.6 |
| 20260501202251 | 19 | 319 | 0.0 | 9.7 | 0.00 | 0.00 | 0.00 | 81 | 1015.6 |
| 20260501201751 | 19 | 19 | 4.8 | 12.9 | 0.00 | 0.00 | 0.00 | 80 | 1015.0 |
| 20260501201250 | 20 | 82 | 4.8 | 12.9 | 0.00 | 0.00 | 0.00 | 78 | 1014.6 |
| 20260501200752 | 21 | 115 | 4.8 | 9.7 | 0.00 | 0.00 | 0.00 | 76 | 1014.5 |
| 20260501200251 | 21 | 64 | 3.2 | 9.7 | 0.00 | 0.00 | 0.00 | 73 | 1014.5 |
| 20260501195751 | 22 | 57 | 0.0 | 8.0 | 0.00 | 0.00 | 0.00 | 71 | 1014.4 |
| 20260501195251 | 22 | 18 | 0.0 | 9.7 | 0.00 | 0.00 | 0.00 | 66 | 1014.3 |
| 20260501194750 | 23 | 342 | 4.8 | 9.7 | 0.00 | 0.00 | 0.00 | 64 | 1014.5 |
| 20260501194251 | 23 | 262 | 0.0 | 8.0 | 0.00 | 0.00 | 0.00 | 61 | 1014.3 |
| 20260501193751 | 23 | 246 | 4.8 | 11.3 | 0.00 | 0.00 | 0.00 | 62 | 1014.1 |
| 20260501193251 | 23 | 244 | 4.8 | 11.3 | 0.00 | 0.00 | 0.00 | 61 | 1013.9 |
| 20260501192750 | 23 | 253 | 8.0 | 11.3 | 0.00 | 0.00 | 0.00 | 61 | 1014.0 |
| 20260501192252 | 23 | 290 | 4.8 | 9.7 | 0.00 | 0.00 | 0.00 | 60 | 1013.3 |
| 20260501191751 | 23 | 309 | 3.2 | 9.7 | 0.00 | 0.00 | 0.00 | 60 | 1012.9 |
| 20260501191251 | 24 | 319 | 8.0 | 9.7 | 0.00 | 0.00 | 0.00 | 59 | 1012.9 |
| 20260501190752 | 24 | 332 | 3.2 | 9.7 | 0.00 | 0.00 | 0.00 | 59 | 1012.9 |
| 20260501190252 | 24 | 326 | 4.8 | 14.5 | 0.00 | 0.00 | 0.00 | 58 | 1012.9 |
| 20260501185751 | 24 | 308 | 8.0 | 14.5 | 0.00 | 0.00 | 0.00 | 57 | 1012.9 |
| 20260501185251 | 24 | 308 | 1.6 | 11.3 | 0.00 | 0.00 | 0.00 | 58 | 1012.8 |
| 20260501184750 | 24 | 319 | 4.8 | 14.5 | 0.00 | 0.00 | 0.00 | 57 | 1012.9 |
| 20260501184252 | 24 | 305 | 1.6 | 14.5 | 0.00 | 0.00 | 0.00 | 57 | 1013.1 |
| 20260501183751 | 25 | 285 | 4.8 | 8.0 | 0.00 | 0.00 | 0.00 | 56 | 1013.1 |
| 20260501183251 | 25 | 107 | 4.8 | 16.1 | 0.00 | 0.00 | 0.00 | 55 | 1012.9 |
| 20260501182750 | 25 | 117 | 4.8 | 16.1 | 0.00 | 0.00 | 0.00 | 55 | 1012.7 |
| 20260501182252 | 25 | 318 | 4.8 | 14.5 | 0.00 | 0.00 | 0.00 | 55 | 1012.9 |
| 20260501181751 | 25 | 329 | 4.8 | 14.5 | 0.00 | 0.00 | 0.00 | 54 | 1013.0 |
| 20260501181251 | 25 | 341 | 6.4 | 12.9 | 0.00 | 0.00 | 0.00 | 55 | 1013.2 |
| 20260501180750 | 25 | 332 | 4.8 | 12.9 | 0.00 | 0.00 | 0.00 | 56 | 1013.4 |